Weather reports worldwide

Advertisment
Wittenberg, Germany (10474): temperature & dewpoint: 11.09.2019 23:00:00 - 17.09.2019 23:00:00 (CEST)Wittenberg, Germany (10474): temperature 5cm & temperature -5cm: 11.09.2019 23:00:00 - 17.09.2019 23:00:00 (CEST)Wittenberg, Germany (10474): temperature -20cm & temperature -100cm: 11.09.2019 23:00:00 - 17.09.2019 23:00:00 (CEST)Wittenberg, Germany (10474): wind speed & gusts: 11.09.2019 23:00:00 - 17.09.2019 23:00:00 (CEST)Wittenberg, Germany (10474): wind direction: 11.09.2019 23:00:00 - 17.09.2019 23:00:00 (CEST)Wittenberg, Germany (10474): reduced air pressure: 11.09.2019 23:00:00 - 17.09.2019 23:00:00 (CEST)Wittenberg, Germany (10474): visibility: 11.09.2019 23:00:00 - 17.09.2019 23:00:00 (CEST)Wittenberg, Germany (10474): sunshine duration: 11.09.2019 23:00:00 - 17.09.2019 23:00:00 (CEST)Wittenberg, Germany (10474): precipitation: 11.09.2019 23:00:00 - 17.09.2019 23:00:00 (CEST)
Date & Time tt [°C] td [°C] tt 5cm [°C] tt -5cm [°C] tt -20cm [°C] tt -100cm [°C] ff [km/h] ff [kn] fx [km/h] fx [kn] dd ppp [hPa] vv [km] sd [min] rr [mm]
17.09.2019 23:00:00 9,8 5,0 8,4 9,5 13,5 17,3 18 10 36 20 W 1017,8 52 0 0,0
17.09.2019 22:00:00 10,1 4,5 8,7 9,9 13,9 17,4 16 8 35 19 W 1017,3 56 0 0,0
17.09.2019 21:00:00 10,7 4,3 9,0 10,6 14,4 17,4 13 7 39 21 W 1016,8 57 0 0,0
17.09.2019 20:00:00 11,6 3,9 10,6 11,6 14,8 17,4 17 9 51 28 WNW 1016,0 63 0 0,0
17.09.2019 19:00:00 12,4 4,7 11,7 12,6 15,1 17,4 22 12 47 26 NW 1015,3 60 8 0,0
17.09.2019 18:00:00 12,6 7,4 11,3 13,7 15,4 17,5 18 10 53 28 NW 1014,7 48 3 0,5
17.09.2019 17:00:00 14,1 9,1 15,1 15,8 15,3 17,5 18 10 45 25 WNW 1014,1 36 25 0,0
17.09.2019 16:00:00 13,0 9,8 12,7 15,8 15,2 17,5 20 11 35 19 W 1014,3 50 6 0,3
17.09.2019 15:00:00 13,8 8,0 13,8 16,0 15,0 17,5 20 11 50 27 WNW 1014,5 28 1 0,0
17.09.2019 14:00:00 14,9 6,8 16,1 15,9 14,8 17,5 24 13 40 22 W 1014,5 75 4 0,0
17.09.2019 13:00:00 14,3 6,7 14,4 15,8 14,5 17,6 22 12 41 22 W 1015,1 55 1 0,0
17.09.2019 12:00:00 14,3 7,8 15,9 15,8 14,1 17,6 23 12 37 20 W 1015,8 44 10 0,0
17.09.2019 11:00:00 13,3 7,7 13,9 15,5 13,6 17,6 23 12 40 22 W 1016,3 40 38 0,0
17.09.2019 10:00:00 12,3 8,5 13,1 13,5 13,2 17,6 19 10 32 17 W 1016,5 33 47 0,0
17.09.2019 09:00:00 11,0 8,3 10,8 11,5 13,1 17,6 16 9 28 15 W 1016,6 34 54 0,0
17.09.2019 08:00:00 9,6 8,7 9,2 10,3 13,2 17,7 10 5 21 11 W 1017,0 11 6 0,0
17.09.2019 07:00:00 9,3 8,8 8,5 10,3 13,4 17,7 8 5 16 8 W 1017,1 6 0 0,0
17.09.2019 06:00:00 9,3 8,8 8,6 10,3 13,6 17,7 5 3 11 6 W 1017,3 6 0 0,0
17.09.2019 05:00:00 9,2 8,8 8,7 10,3 13,8 17,7 6 4 10 5 W 1017,5 2,9 0 0,0
17.09.2019 04:00:00 9,2 8,6 7,9 10,4 14,2 17,7 6 3 11 6 W 1017,8 6 0 0,0
17.09.2019 03:00:00 9,5 8,9 7,7 10,9 14,5 17,7 5 3 11 6 WNW 1017,9 6 0 0,0
17.09.2019 02:00:00 10,4 9,5 9,0 11,5 14,8 17,7 7 4 15 8 WNW 1017,9 12 0 0,0
17.09.2019 01:00:00 11,1 10,0 9,9 12,2 15,0 17,7 8 4 17 9 NW 1018,1 18 0 0,0
17.09.2019 00:00:00 11,3 10,4 10,7 12,7 15,2 17,7 6 4 9 5 WNW 1018,1 15 0 0,0
16.09.2019 23:00:00 11,4 10,6 11,1 13,0 15,5 17,7 5 3 10 5 W 1018,3 14 0 0,0
16.09.2019 22:00:00 11,4 10,5 10,9 13,3 15,7 17,8 6 3 10 5 W 1018,4 17 0 0,0
16.09.2019 21:00:00 11,8 10,6 11,1 13,7 16,0 17,8 7 4 11 6 W 1018,3 25 0 0,0
16.09.2019 20:00:00 12,2 10,7 11,5 14,4 16,2 17,8 5 3 11 6 W 1017,9 32 0 0,0
16.09.2019 19:00:00 12,5 10,5 12,3 15,1 16,3 17,8 6 4 14 7 W 1018,0 38 0 0,0
16.09.2019 18:00:00 12,6 10,5 12,5 15,6 16,4 17,8 8 5 16 9 W 1018,0 40 0 0,0
16.09.2019 17:00:00 12,5 10,4 12,5 15,8 16,5 17,8 7 4 12 7 WSW 1018,1 45 0 0,1
16.09.2019 16:00:00 12,3 10,2 12,7 16,1 16,5 17,8 5 3 13 7 W 1018,5 39 0 0,0
16.09.2019 15:00:00 12,2 9,6 12,6 16,3 16,5 17,8 7 4 14 8 W 1018,8 12 0 0,0
16.09.2019 14:00:00 13,0 8,8 13,0 16,7 16,4 17,8 7 4 20 11 W 1019,2 46 0 0,0
16.09.2019 13:00:00 12,7 9,1 13,1 16,6 16,2 17,8 9 5 16 9 WNW 1019,8 75 0 0,0
16.09.2019 12:00:00 12,3 9,5 12,6 16,7 16,0 17,8 9 5 15 8 W 1020,1 57 0 0,1
16.09.2019 11:00:00 11,8 9,2 11,9 15,4 16,0 17,8 9 5 18 10 W 1020,2 40 0 0,2
16.09.2019 10:00:00 11,5 9,3 11,7 14,6 16,0 17,8 9 5 16 9 W 1020,6 28 0 0,9
16.09.2019 09:00:00 11,7 9,4 11,2 14,2 16,2 17,8 8 4 23 12 WNW 1020,5 17 0 0,6
16.09.2019 08:00:00 12,6 9,4 11,7 14,4 16,4 17,8 11 6 23 12 WNW 1020,2 21 0 0,3
16.09.2019 07:00:00 12,8 11,3 12,3 14,5 16,6 17,8 7 4 16 9 WNW 1019,8 17 0 0,0
16.09.2019 06:00:00 13,0 11,2 12,4 14,9 16,8 17,8 5 3 11 6 W 1019,8 22 0 0,3
16.09.2019 05:00:00 13,6 11,6 12,8 15,2 16,9 17,8 5 3 19 11 WNW 1019,9 24 0 0,3
16.09.2019 04:00:00 14,2 11,1 13,6 15,6 17,1 17,8 9 5 16 9 NNW 1020,0 24 0 0,0
16.09.2019 03:00:00 14,3 12,4 13,8 16,0 17,3 17,8 4 2 22 12 WNW 1020,1 60 0 0,0
16.09.2019 02:00:00 14,8 12,7 14,1 16,4 17,4 17,8 14 8 34 18 NW 1020,0 11 0 0,0
16.09.2019 01:00:00 17,1 12,8 16,6 16,7 17,5 17,8 14 8 29 15 WNW 1019,4 75 0 0,0
16.09.2019 00:00:00 17,3 13,3 16,8 16,6 17,7 17,8 14 8 29 16 NNW 1019,2 58 0 0,0
15.09.2019 23:00:00 17,9 11,2 17,0 16,2 17,9 17,8 17 9 31 17 NNW 1018,9 50 0 0,0
15.09.2019 22:00:00 18,3 3,2 16,2 16,4 18,3 17,8 8 4 16 9 W 1018,5 75 0 0,0
15.09.2019 21:00:00 19,1 2,6 16,4 17,2 18,7 17,9 8 4 20 11 W 1018,4 73 0 0,0
15.09.2019 20:00:00 20,5 1,7 18,5 18,4 19,0 17,9 13 7 21 12 W 1018,0 73 0 0,0
15.09.2019 19:00:00 22,1 0,7 20,4 20,1 19,1 17,9 13 7 24 13 W 1017,8 75 32 0,0
15.09.2019 18:00:00 23,4 1,6 23,4 21,7 19,0 17,9 13 7 27 14 W 1018,0 75 54 0,0
15.09.2019 17:00:00 23,3 1,8 23,9 22,7 18,6 17,9 15 8 27 14 W 1018,4 75 60 0,0
15.09.2019 16:00:00 23,4 1,7 24,5 22,2 18,1 17,9 16 8 31 17 WSW 1019,0 52 37 0,0
15.09.2019 15:00:00 22,7 4,7 24,5 22,3 17,6 18,0 16 9 29 15 W 1019,7 58 31 0,0
15.09.2019 14:00:00 22,1 5,0 23,4 21,8 16,9 18,0 17 9 31 17 W 1020,7 75 24 0,0
15.09.2019 13:00:00 21,0 3,7 22,4 20,9 16,2 18,0 16 9 31 17 W 1020,9 75 20 0,0
15.09.2019 12:00:00 20,6 5,5 22,9 20,1 15,3 18,0 18 10 32 18 W 1021,4 60 60 0,0
15.09.2019 11:00:00 18,9 9,2 22,2 17,8 14,6 18,0 9 5 22 12 W 1021,7 45 60 0,0
15.09.2019 10:00:00 15,6 9,3 18,6 15,1 14,1 18,0 10 6 19 10 WSW 1022,5 40 60 0,0
15.09.2019 09:00:00 12,0 7,7 13,5 12,0 14,0 18,0 5 3 14 8 WSW 1023,1 37 60 0,0
15.09.2019 08:00:00 9,4 6,3 9,7 10,5 14,2 18,0 5 3 9 5 WSW 1023,4 44 23 0,0
15.09.2019 07:00:00 6,7 4,7 5,6 10,2 14,5 18,0 4 2 8 4 ENE 1024,0 36 0 0,0
15.09.2019 06:00:00 8,1 5,6 5,7 10,5 14,9 18,0 5 3 8 4 E 1024,5 44 0 0,0
15.09.2019 05:00:00 8,2 5,6 5,6 10,9 15,2 18,0 3 2 6 3 ESE 1025,3 52 0 0,0
15.09.2019 04:00:00 8,6 5,7 5,7 11,2 15,6 18,0 5 3 8 4 E 1026,1 48 0 0,0
15.09.2019 03:00:00 9,2 5,6 6,0 11,6 16,0 18,0 5 3 9 5 E 1026,8 49 0 0,0
15.09.2019 02:00:00 10,1 5,6 7,1 12,0 16,5 18,0 6 3 9 5 E 1027,5 51 0 0,0
15.09.2019 01:00:00 9,2 5,7 6,0 12,6 17,0 18,0 5 3 7 4 ESE 1028,2 50 0 0,0
15.09.2019 00:00:00 8,8 5,4 7,0 13,2 17,5 18,0 3 2 7 4 E 1029,4 64 0 0,0
14.09.2019 23:00:00 9,8 6,2 7,4 14,1 18,1 18,0 4 2 7 4 ESE 1029,4 52 0 0,0
14.09.2019 22:00:00 10,7 5,9 8,3 15,1 18,7 18,0 4 2 8 5 ESE 1030,3 72 0 0,0
14.09.2019 21:00:00 12,4 5,4 9,0 16,3 19,3 18,0 3 2 6 4 N 1030,7 68 0 0,0
14.09.2019 20:00:00 13,6 6,9 10,9 18,0 19,8 18,0 3 2 6 3 N 1030,6 61 0 0,0
14.09.2019 19:00:00 17,4 4,7 15,4 20,2 20,1 18,1 4 2 10 5 SW 1030,3 65 28 0,0
14.09.2019 18:00:00 18,6 4,7 18,7 22,4 20,1 18,1 3 1 11 6 WSW 1030,8 65 60 0,0
14.09.2019 17:00:00 18,8 4,6 20,6 24,0 19,8 18,1 3 2 10 6 W 1031,4 64 60 0,0
14.09.2019 16:00:00 18,7 4,5 21,9 24,6 19,3 18,1 6 3 14 8 SW 1032,0 75 60 0,0
14.09.2019 15:00:00 18,5 5,4 21,8 24,5 18,5 18,1 5 3 13 7 SW 1032,9 51 57 0,0
14.09.2019 14:00:00 18,4 4,9 21,3 24,6 17,5 18,1 3 2 16 9 NW 1033,5 56 57 0,0
14.09.2019 13:00:00 18,0 5,8 22,8 22,7 16,6 18,1 8 5 16 9 WSW 1034,1 61 56 0,0
14.09.2019 12:00:00 15,5 6,4 16,7 19,7 15,8 18,1 3 2 11 6 N 1034,8 45 32 0,0
14.09.2019 11:00:00 15,6 8,0 19,3 18,3 15,0 18,2 5 3 11 6 SSW 1035,0 59 60 0,0
14.09.2019 10:00:00 14,5 8,4 15,2 15,2 14,5 18,2 4 2 9 5 E 1034,9 43 60 0,0
14.09.2019 09:00:00 12,4 7,4 15,0 12,3 14,5 18,2 2 1 6 3 NNW 1035,1 38 59 0,0
14.09.2019 08:00:00 8,9 6,1 8,9 10,8 14,7 18,2 3 2 6 3 NNW 1035,2 36 34 0,0
14.09.2019 07:00:00 7,7 6,0 5,1 10,6 15,1 18,1 4 2 6 3 NW 1034,9 39 0 0,0
14.09.2019 06:00:00 8,7 6,6 5,4 11,1 15,4 18,1 4 2 7 4 NNW 1034,6 48 0 0,0
14.09.2019 05:00:00 9,4 6,5 5,8 11,6 15,8 18,1 0 0 14 8 N 1034,5 42 0 0,0
14.09.2019 04:00:00 10,2 6,5 8,5 12,0 16,2 18,1 11 6 17 9 N 1034,4 52 0 0,0
14.09.2019 03:00:00 10,3 6,2 8,6 12,5 16,6 18,1 11 6 16 9 N 1034,3 45 0 0,0
14.09.2019 02:00:00 9,9 6,7 7,5 13,1 17,1 18,1 6 3 13 7 N 1034,3 58 0 0,0
14.09.2019 01:00:00 11,5 7,7 8,5 13,9 17,5 18,1 6 3 15 8 NW 1034,2 49 0 0,0
14.09.2019 00:00:00 12,1 8,6 10,0 14,5 18,0 18,1 9 5 11 6 NNW 1034,0 58 0 0,0
13.09.2019 23:00:00 12,8 9,1 9,9 15,4 18,4 18,1 6 4 11 6 NNW 1033,3 60 0 0,0
13.09.2019 22:00:00 13,6 9,4 11,0 16,5 18,9 18,1 8 4 12 6 NNW 1032,8 65 0 0,0
13.09.2019 21:00:00 15,5 9,4 12,6 17,3 19,3 18,1 7 4 12 6 NNW 1032,0 71 0 0,0
13.09.2019 20:00:00 17,4 9,5 15,1 18,6 19,7 18,1 8 4 22 12 NNW 1031,2 75 0 0,0
13.09.2019 19:00:00 18,8 9,9 17,9 20,1 19,9 18,1 11 6 25 14 N 1030,5 62 21 0,0
13.09.2019 18:00:00 20,0 10,9 20,5 21,4 19,8 18,1 14 8 29 15 NNW 1030,0 72 33 0,0
13.09.2019 17:00:00 20,8 11,6 22,5 22,2 19,7 18,1 19 11 32 17 NNW 1029,5 56 24 0,0
13.09.2019 16:00:00 21,2 13,0 22,7 22,8 19,4 18,1 17 9 44 24 NNW 1029,1 67 19 0,0
13.09.2019 15:00:00 22,7 13,7 26,5 23,8 18,8 18,1 14 8 31 17 WNW 1028,6 65 36 0,0
13.09.2019 14:00:00 21,6 13,9 23,0 22,6 18,3 18,1 16 9 31 17 W 1028,4 55 23 0,0
13.09.2019 13:00:00 20,6 14,6 22,3 20,6 17,8 18,1 13 7 31 17 W 1028,5 50 1 0,0
13.09.2019 12:00:00 19,9 14,1 21,0 20,4 17,4 18,1 14 8 37 20 W 1028,3 52 3 0,0
13.09.2019 11:00:00 19,3 13,4 20,0 19,0 17,0 18,1 21 11 35 19 W 1028,2 50 0 0,0
13.09.2019 10:00:00 18,9 13,3 19,6 17,9 16,6 18,1 15 8 26 14 WSW 1028,0 40 13 0,0
13.09.2019 09:00:00 18,0 13,3 19,1 16,4 16,5 18,1 10 5 18 10 SW 1027,7 54 21 0,0
13.09.2019 08:00:00 15,7 13,0 15,4 15,3 16,5 18,1 6 3 9 5 SW 1027,7 51 0 0,0
13.09.2019 07:00:00 14,8 12,5 14,5 14,9 16,5 18,1 5 3 11 6 WSW 1027,6 38 0 0,0
13.09.2019 06:00:00 14,6 12,5 13,6 14,2 16,8 18,1 6 3 10 5 WSW 1027,4 37 0 0,0
13.09.2019 05:00:00 13,9 12,0 11,0 14,3 17,0 18,1 4 2 12 7 WSW 1027,4 35 0 0,0
13.09.2019 04:00:00 13,9 12,0 11,1 14,8 17,3 18,0 5 3 8 5 WSW 1027,5 33 0 0,0
13.09.2019 03:00:00 14,2 11,9 11,5 15,0 17,6 18,0 5 3 8 4 WSW 1027,6 34 0 0,0
13.09.2019 02:00:00 14,2 11,9 12,1 15,5 17,9 18,0 2 1 7 4 SW 1027,7 33 0 0,0
13.09.2019 01:00:00 14,2 12,2 11,7 15,8 18,3 18,0 3 2 7 4 WSW 1027,7 33 0 0,0
13.09.2019 00:00:00 14,9 12,7 12,6 16,3 18,7 18,0 3 2 7 4 W 1027,8 37 0 0,0
12.09.2019 23:00:00 14,9 12,5 13,2 17,0 19,1 18,0 4 2 7 4 W 1027,7 39 0 0,0
12.09.2019 22:00:00 16,9 13,3 13,5 18,0 19,5 18,0 3 2 7 4 S 1027,4 53 0 0,0
12.09.2019 21:00:00 17,2 13,5 15,1 18,9 19,8 18,0 2 1 6 3 ESE 1027,4 56 0 0,0
12.09.2019 20:00:00 19,1 12,8 15,3 19,9 20,1 18,0 4 2 8 5 S 1027,1 63 10 0,0
12.09.2019 19:00:00 21,4 12,6 20,2 21,6 20,3 18,0 7 4 13 7 SSW 1026,9 59 36 0,0
12.09.2019 18:00:00 21,8 13,0 22,1 23,0 20,1 18,0 9 5 16 9 SW 1027,1 70 57 0,0
12.09.2019 17:00:00 22,0 13,1 24,2 23,0 19,9 18,0 7 4 19 10 W 1027,3 48 16 0,0
12.09.2019 16:00:00 22,1 13,5 24,9 24,0 19,4 18,0 9 5 27 14 W 1027,4 75 35 0,0
12.09.2019 15:00:00 21,2 13,2 23,6 23,5 18,9 18,0 14 8 29 16 WSW 1027,8 58 15 0,0
12.09.2019 14:00:00 21,1 13,2 24,0 23,1 18,3 18,0 12 6 24 13 WSW 1027,8 44 19 0,0
12.09.2019 13:00:00 19,6 13,1 21,2 21,0 17,9 18,0 12 6 19 10 WSW 1027,8 70 1 0,0
12.09.2019 12:00:00 19,2 13,0 21,1 21,4 17,3 18,0 10 6 20 11 WSW 1027,7 57 7 0,0
12.09.2019 11:00:00 18,7 12,9 20,9 20,3 16,8 18,0 9 5 22 12 WSW 1027,5 64 33 0,0
12.09.2019 10:00:00 17,1 12,4 18,2 18,1 16,5 18,0 11 6 23 12 WSW 1027,1 58 8 0,0
12.09.2019 09:00:00 16,2 12,5 17,2 16,5 16,4 18,0 8 5 20 11 SW 1026,5 65 2 0,0
12.09.2019 08:00:00 15,2 12,2 15,2 15,6 16,4 18,0 8 5 17 9 WSW 1026,2 61 0 0,0
12.09.2019 07:00:00 15,0 12,3 14,8 15,5 16,4 18,0 7 4 16 9 SW 1025,5 57 0 0,0
12.09.2019 06:00:00 14,6 12,4 14,5 15,5 16,5 18,0 6 4 16 9 SW 1025,0 48 0 0,0
12.09.2019 05:00:00 14,8 11,6 14,6 15,5 16,6 18,0 9 5 22 12 SW 1024,8 50 0 0,0
12.09.2019 04:00:00 15,3 11,5 15,0 15,5 16,7 18,0 16 9 28 15 WSW 1024,6 36 0 0,0
12.09.2019 03:00:00 15,4 10,2 14,9 15,5 16,8 18,0 6 3 13 7 W 1024,1 57 0 0,0
12.09.2019 02:00:00 15,6 9,1 14,9 15,5 17,0 18,0 8 4 13 7 W 1023,6 58 0 0,0
12.09.2019 01:00:00 16,0 8,4 14,9 15,6 17,2 18,0 7 4 18 10 W 1023,1 64 0 0,0
12.09.2019 00:00:00 15,8 8,3 14,3 15,8 17,5 18,1 5 3 8 4 SW 1022,6 69 0 0,0
11.09.2019 23:00:00 15,2 8,5 12,9 15,9 17,8 18,1 3 2 11 6 SSW 1022,7 68 0 0,0

tt = temperature
td = dewpoint
tt 5cm = temperature 5cm
tt -5cm = temperature -5cm
tt -20cm = temperature -20cm
tt -100cm = temperature -100cm
ff = wind speed
fx = gusts
dd = wind direction
ppp = reduced air pressure
vv = visibility
sd = sunshine duration
rr = precipitation

Next stations